Hourly Weather Godzhur

Today, 13 May, Thursday

Time Temperature Precipitation Wind Pressure Humidity
00:00 +14°C° 0 mm 4 mps 755 mmHg 60%
01:00 +14°C° 0 mm 3 mps 755 mmHg 62%
02:00 +14°C° 0 mm 3 mps 755 mmHg 65%
03:00 +13°C° 0 mm 3 mps 755 mmHg 67%
04:00 +13°C° 0 mm 3 mps 755 mmHg 69%
05:00 +14°C° 0 mm 3 mps 755 mmHg 71%
06:00 +15°C° 0 mm 2 mps 755 mmHg 73%
07:00 +17°C° 0 mm 2 mps 755 mmHg 67%
08:00 +19°C° 0 mm 2 mps 755 mmHg 61%
09:00 +21°C° 0 mm 2 mps 755 mmHg 55%
10:00 +23°C° 0 mm 2 mps 755 mmHg 51%
11:00 +24°C° 0 mm 2 mps 755 mmHg 47%
12:00 +26°C° 0 mm 2 mps 755 mmHg 44%
13:00 +27°C° 0 mm 2 mps 755 mmHg 41%
14:00 +27°C° 0 mm 3 mps 755 mmHg 38%
15:00 +28°C° 0 mm 3 mps 755 mmHg 36%
16:00 +28°C° 0 mm 3 mps 755 mmHg 38%
17:00 +27°C° 0 mm 3 mps 755 mmHg 40%
18:00 +27°C° 0 mm 2 mps 755 mmHg 43%
19:00 +25°C° 0 mm 2 mps 755 mmHg 45%
20:00 +24°C° 0 mm 2 mps 755 mmHg 47%
21:00 +21°C° 0 mm 2 mps 755 mmHg 50%
22:00 +21°C° 0 mm 2 mps 755 mmHg 51%
23:00 +20°C° 0 mm 3 mps 755 mmHg 53%

Tomorrow, 14 May, Friday

Time Temperature Precipitation Wind Pressure Humidity
00:00 +20°C° 0 mm 3 mps 755 mmHg 54%
01:00 +19°C° 0 mm 3 mps 755 mmHg 58%
02:00 +18°C° 0 mm 3 mps 755 mmHg 61%
03:00 +17°C° 0 mm 3 mps 755 mmHg 64%
04:00 +17°C° 0 mm 3 mps 755 mmHg 67%
05:00 +17°C° 0 mm 3 mps 755 mmHg 70%
06:00 +17°C° 0 mm 3 mps 755 mmHg 73%
07:00 +20°C° 0 mm 4 mps 755 mmHg 64%
08:00 +22°C° 0 mm 5 mps 755 mmHg 55%
09:00 +24°C° 0 mm 6 mps 755 mmHg 46%
10:00 +27°C° 0 mm 7 mps 755 mmHg 41%
11:00 +29°C° 0 mm 8 mps 755 mmHg 35%
12:00 +32°C° 0 mm 8 mps 755 mmHg 30%
13:00 +33°C° 0 mm 8 mps 754 mmHg 28%
14:00 +34°C° 0 mm 9 mps 754 mmHg 26%
15:00 +35°C° 0 mm 9 mps 754 mmHg 24%
16:00 +33°C° 0 mm 9 mps 754 mmHg 26%
17:00 +32°C° 0 mm 8 mps 754 mmHg 29%
18:00 +31°C° 0 mm 8 mps 754 mmHg 32%
19:00 +28°C° 0 mm 7 mps 754 mmHg 35%
20:00 +26°C° 0 mm 7 mps 754 mmHg 38%
21:00 +23°C° 0 mm 6 mps 755 mmHg 42%
22:00 +22°C° 0 mm 6 mps 755 mmHg 41%
23:00 +20°C° 0 mm 5 mps 755 mmHg 40%

Day after tomorrow, 15 May, Saturday

Time Temperature Precipitation Wind Pressure Humidity
00:00 +19°C° 0 mm 5 mps 755 mmHg 39%
01:00 +19°C° 0 mm 5 mps 755 mmHg 41%
02:00 +17°C° 0 mm 5 mps 755 mmHg 42%
03:00 +17°C° 0 mm 5 mps 754 mmHg 43%
04:00 +17°C° 0 mm 5 mps 754 mmHg 43%
05:00 +17°C° 0 mm 5 mps 754 mmHg 43%
06:00 +19°C° 0 mm 5 mps 755 mmHg 43%
07:00 +21°C° 0 mm 6 mps 754 mmHg 38%
08:00 +24°C° 0 mm 7 mps 754 mmHg 33%
09:00 +27°C° 0 mm 8 mps 754 mmHg 29%
10:00 +29°C° 0 mm 8 mps 754 mmHg 25%
11:00 +32°C° 0 mm 8 mps 754 mmHg 21%
12:00 +34°C° 0 mm 9 mps 754 mmHg 17%
13:00 +34°C° 0 mm 9 mps 754 mmHg 17%
14:00 +34°C° 0 mm 9 mps 754 mmHg 17%
15:00 +35°C° 0 mm 9 mps 754 mmHg 17%
16:00 +33°C° 0 mm 8 mps 753 mmHg 19%
17:00 +32°C° 0 mm 7 mps 753 mmHg 22%
18:00 +30°C° 0 mm 7 mps 753 mmHg 24%
19:00 +28°C° 0 mm 6 mps 754 mmHg 27%
20:00 +26°C° 0 mm 6 mps 754 mmHg 30%
21:00 +23°C° 0 mm 6 mps 754 mmHg 33%
22:00 +22°C° 0 mm 5 mps 754 mmHg 38%
23:00 +20°C° 0 mm 5 mps 754 mmHg 43%

16 May, Sunday

Time Temperature Precipitation Wind Pressure Humidity
00:00 +19°C° 0 mm 4 mps 754 mmHg 48%
01:00 +19°C° 0 mm 4 mps 754 mmHg 49%
02:00 +19°C° 0 mm 4 mps 754 mmHg 49%
03:00 +18°C° 0 mm 4 mps 754 mmHg 50%
04:00 +18°C° 0 mm 4 mps 754 mmHg 50%
05:00 +19°C° 0 mm 3 mps 754 mmHg 51%
06:00 +19°C° 0 mm 3 mps 754 mmHg 51%
07:00 +22°C° 0 mm 4 mps 753 mmHg 45%
08:00 +25°C° 0 mm 5 mps 753 mmHg 38%
09:00 +28°C° 0 mm 5 mps 753 mmHg 32%
10:00 +30°C° 0 mm 6 mps 753 mmHg 28%
11:00 +32°C° 0 mm 8 mps 752 mmHg 25%
12:00 +34°C° 0 mm 9 mps 752 mmHg 21%
13:00 +34°C° 0 mm 9 mps 752 mmHg 21%
14:00 +36°C° 0 mm 10 mps 751 mmHg 21%
15:00 +36°C° 0 mm 10 mps 751 mmHg 21%
16:00 +33°C° 0 mm 10 mps 751 mmHg 23%
17:00 +32°C° 0 mm 9 mps 751 mmHg 25%
18:00 +31°C° 0 mm 8 mps 751 mmHg 27%
19:00 +28°C° 0 mm 7 mps 751 mmHg 30%
20:00 +26°C° 0 mm 6 mps 751 mmHg 32%
21:00 +25°C° 0 mm 5 mps 751 mmHg 34%
22:00 +23°C° 0 mm 5 mps 751 mmHg 36%
23:00 +22°C° 0 mm 5 mps 751 mmHg 38%

17 May, Monday

Time Temperature Precipitation Wind Pressure Humidity
00:00 +21°C° 0 mm 5 mps 750 mmHg 39%
01:00 +20°C° 0 mm 5 mps 750 mmHg 39%
02:00 +20°C° 0 mm 5 mps 750 mmHg 39%
03:00 +19°C° 0 mm 5 mps 750 mmHg 39%
04:00 +19°C° 0 mm 4 mps 750 mmHg 40%
05:00 +19°C° 0 mm 4 mps 750 mmHg 42%
06:00 +20°C° 0 mm 4 mps 750 mmHg 44%
07:00 +23°C° 0 mm 5 mps 750 mmHg 39%
08:00 +26°C° 0 mm 7 mps 750 mmHg 33%
09:00 +29°C° 0 mm 8 mps 750 mmHg 27%
10:00 +32°C° 0 mm 9 mps 750 mmHg 23%
11:00 +33°C° 0 mm 10 mps 750 mmHg 19%
12:00 +34°C° 0 mm 11 mps 750 mmHg 16%
13:00 +36°C° 0 mm 10 mps 749 mmHg 15%
14:00 +36°C° 0 mm 10 mps 749 mmHg 15%
15:00 +35°C° 0 mm 9 mps 749 mmHg 15%
16:00 +34°C° 0 mm 8 mps 749 mmHg 18%
17:00 +32°C° 0 mm 7 mps 750 mmHg 20%
18:00 +30°C° 0 mm 6 mps 750 mmHg 23%
19:00 +28°C° 0 mm 5 mps 750 mmHg 25%
20:00 +26°C° 0 mm 5 mps 751 mmHg 26%
21:00 +23°C° 0 mm 4 mps 751 mmHg 28%
22:00 +22°C° 0 mm 4 mps 751 mmHg 32%
23:00 +21°C° 0 mm 3 mps 751 mmHg 35%

18 May, Tuesday

Time Temperature Precipitation Wind Pressure Humidity
00:00 +20°C° 0 mm 3 mps 751 mmHg 39%
01:00 +20°C° 0 mm 3 mps 751 mmHg 45%
02:00 +20°C° 0 mm 3 mps 751 mmHg 51%
03:00 +19°C° 0 mm 3 mps 752 mmHg 56%
04:00 +19°C° 0 mm 4 mps 752 mmHg 64%
05:00 +19°C° 0 mm 5 mps 752 mmHg 71%
06:00 +19°C° 0 mm 6 mps 752 mmHg 79%
07:00 +20°C° 0 mm 6 mps 752 mmHg 73%
08:00 +22°C° 0 mm 6 mps 752 mmHg 66%
09:00 +23°C° 0 mm 7 mps 753 mmHg 60%
10:00 +26°C° 0 mm 6 mps 753 mmHg 54%
11:00 +27°C° 0 mm 6 mps 753 mmHg 47%
12:00 +29°C° 0 mm 6 mps 753 mmHg 40%
13:00 +29°C° 0 mm 6 mps 753 mmHg 40%
14:00 +30°C° 0 mm 6 mps 753 mmHg 39%
15:00 +30°C° 0 mm 6 mps 753 mmHg 38%
16:00 +29°C° 0 mm 6 mps 753 mmHg 44%
17:00 +28°C° 0 mm 7 mps 753 mmHg 49%
18:00 +27°C° 0 mm 7 mps 753 mmHg 55%
19:00 +24°C° 0 mm 7 mps 754 mmHg 60%
20:00 +22°C° 0 mm 6 mps 754 mmHg 66%
21:00 +21°C° 0 mm 6 mps 754 mmHg 72%
22:00 +20°C° 0 mm 6 mps 754 mmHg 73%
23:00 +20°C° 0 mm 5 mps 754 mmHg 74%
Show more